Location: Tierz
(42.1336°N, 0.3549°W)
Time: 18:21:23
(UTC+00:00)

CSL-04 Rocket - Pass Details

Date: 29 October 2020
Orbit: 805 x 861 km, 98.9° (Epoch: 03 December)

Event Time Altitude Azimuth Distance (km) Brightness Sun altitude
Exits shadow 18:34:12 - 147° (SSE) 2,750 6.1 -18.2°
Reaches altitude 10° 18:34:54 10° 145° (SE) 2,489 5.8 -18.4°
Maximum altitude 18:40:15 53° 70° (ENE) 1,048 3.8 -19.4°
Drops below altitude 10° 18:45:35 10° 356° (N) 2,483 6.2 -20.4°
Sets 18:48:00 0° 351° (N) 3,416 7.0 -20.8°
